Weather History for Versailles, OH

Change the Weather History Date:

Thursday, August 8, 2013

  Actual Average (KDAY) Record (KDAY)
Temperature  
Mean Temperature 74 °F 73 °F  
Max Temperature 80 °F 83 °F 99 °F (1901)
Min Temperature 68 °F 64 °F 49 °F (1989)
Degree Days  
Heating Degree Days 0 0  
Month to date heating degree days 0  
Since 1 June heating degree days 22  
Since 1 July heating degree days 0  
Cooling Degree Days 9 8  
Month to date cooling degree days 70  
Year to date cooling degree days 609  
Since 1 June cooling degree days 539  
Growing Degree Days 24 (Base 50)    
Moisture  
Dew Point 71 °F    
Average Humidity 96    
Maximum Humidity 100    
Minimum Humidity 74    
Precipitation  
Precipitation 0.30 in 0.09 in 2.23 in (1995)
Month to date precipitation 0.77  
Year to date precipitation 26.09  
Snow  
Snow 0.00 in 0.00 in - ()
Month to date snowfall 0.0  
Since 1 June snowfall 0.0  
Since 1 July snowfall 0.0  
Snow Depth -    
Sea Level Pressure  
Sea Level Pressure 29.95 in    
Wind  
Wind Speed 1 mph (NE)    
Max Wind Speed 8 mph    
Max Gust Speed -    
Visibility 5 miles    
Events Rain , Thunderstorm    
T = Trace of Precipitation, MM = Missing Value Source: NWS Daily Summary

Daily Weather History Graph

Daily Weather History Graph

Search for Another Location

Airport:

Trip Planner

Search our weather history database for the weather conditions in past years. The results will help you decide how hot, cold, wet, or windy it might be!

Date:

Astronomy

Aug. 08, 2013 Rise Set
Actual Time 6:42 AM EDT 8:43 PM EDT
Civil Twilight 6:13 AM EDT 9:13 PM EDT
Nautical Twilight 5:36 AM EDT 9:49 PM EDT
Astronomical Twilight 4:57 AM EDT 10:28 PM EDT
Moon 8:29 AM EDT (8/8) 9:21 PM EDT (8/8)
Length of Visible Light 15h 00m
Length of Day
14h 01m
Waxing Crescent, 3% of the Moon is Illuminated
Aug 8
Waxing Crescent
Aug 14
First Quarter
Aug 20
Full
Aug 28
Last Quarter
Sep 5
New

Hourly Weather History & Observations

Time (EDT) Temp. Heat Index Dew Point Humidity Pressure Visibility Wind Dir Wind Speed Gust Speed Precip Events Conditions
12:15 AM 71.6 °F - 71.6 °F 100% 29.94 in 7.0 mi Calm Calm - N/A   Overcast
12:35 AM 71.6 °F - 71.6 °F 100% 29.94 in 7.0 mi Calm Calm - N/A   Overcast
12:55 AM 71.6 °F - 71.6 °F 100% 29.95 in 7.0 mi Calm Calm - N/A   Mostly Cloudy
1:15 AM 71.6 °F - 71.6 °F 100% 29.95 in 5.0 mi Calm Calm - N/A   Scattered Clouds
1:35 AM 69.8 °F - 69.8 °F 100% 29.95 in 5.0 mi Calm Calm - N/A   Clear
1:55 AM 69.8 °F - 69.8 °F 100% 29.95 in 4.0 mi NNW 4.6 mph - N/A   Mostly Cloudy
2:15 AM 69.8 °F - 69.8 °F 100% 29.94 in 4.0 mi Calm Calm - N/A   Scattered Clouds
2:35 AM 69.8 °F - 69.8 °F 100% 29.93 in 4.0 mi Calm Calm - N/A   Clear
2:55 AM 69.8 °F - 69.8 °F 100% 29.92 in 3.0 mi SW 3.5 mph - N/A   Scattered Clouds
3:15 AM 69.8 °F - 69.8 °F 100% 29.93 in 4.0 mi Calm Calm - N/A Thunderstorm Clear
3:35 AM 69.8 °F - 69.8 °F 100% 29.93 in 5.0 mi South 4.6 mph - N/A   Mostly Cloudy
3:55 AM 69.8 °F - 69.8 °F 100% 29.94 in 5.0 mi Calm Calm - N/A   Overcast
4:15 AM 69.8 °F - 69.8 °F 100% 29.93 in 5.0 mi Calm Calm - N/A   Mostly Cloudy
4:35 AM 69.8 °F - 69.8 °F 100% 29.94 in 5.0 mi Calm Calm - N/A   Scattered Clouds
4:55 AM 68.0 °F - 68.0 °F 100% 29.93 in 4.0 mi Calm Calm - N/A   Scattered Clouds
5:15 AM 68.0 °F - 68.0 °F 100% 29.93 in 3.0 mi Calm Calm - N/A   Clear
5:35 AM 68.0 °F - 68.0 °F 100% 29.94 in 2.0 mi Calm Calm - N/A   Mostly Cloudy
5:55 AM 69.8 °F - 69.8 °F 100% 29.93 in 4.0 mi Calm Calm - N/A   Overcast
6:15 AM 69.8 °F - 69.8 °F 100% 29.93 in 3.0 mi SSE 3.5 mph - N/A   Overcast
6:35 AM 69.8 °F - 69.8 °F 100% 29.93 in 3.0 mi Calm Calm - N/A   Overcast
6:55 AM 68.0 °F - 68.0 °F 100% 29.93 in 1.8 mi SSE 3.5 mph - N/A   Overcast
7:15 AM 68.0 °F - 68.0 °F 100% 29.93 in 1.5 mi North - - N/A   Overcast
7:35 AM 69.8 °F - 69.8 °F 100% 29.93 in 2.5 mi North - - N/A   Overcast
7:55 AM 69.8 °F - 69.8 °F 100% 29.94 in 2.0 mi North - - N/A   Overcast
8:15 AM 69.8 °F - 69.8 °F 100% 29.94 in 2.5 mi North - - N/A   Overcast
8:35 AM 71.6 °F - 71.6 °F 100% 29.95 in 2.5 mi North - - N/A   Overcast
8:55 AM 71.6 °F - 71.6 °F 100% 29.95 in 4.0 mi North - - N/A   Overcast
9:15 AM 71.6 °F - 71.6 °F 100% 29.95 in 4.0 mi North - - N/A   Overcast
9:35 AM 71.6 °F - 71.6 °F 100% 29.95 in 5.0 mi North - - N/A   Overcast
9:55 AM 73.4 °F - 71.6 °F 94% 29.96 in 5.0 mi Calm Calm - N/A   Overcast
10:15 AM 73.4 °F - 71.6 °F 94% 29.97 in 5.0 mi Calm Calm - N/A   Overcast
10:35 AM 73.4 °F - 71.6 °F 94% 29.98 in 4.0 mi Calm Calm - N/A Rain Light Rain
10:55 AM 73.4 °F - 71.6 °F 94% 29.99 in 4.0 mi Calm Calm - N/A   Overcast
11:15 AM 73.4 °F - 71.6 °F 94% 29.99 in 3.0 mi Calm Calm - 0.02 in Rain Heavy Rain
11:35 AM 75.2 °F - 73.4 °F 94% 29.98 in 4.0 mi Calm Calm - 0.02 in   Overcast
11:55 AM 75.2 °F - 73.4 °F 94% 29.98 in 5.0 mi Calm Calm - 0.02 in   Overcast
12:15 PM 77.0 °F - 73.4 °F 89% 29.97 in 5.0 mi Calm Calm - N/A   Overcast
12:35 PM 78.8 °F - 73.4 °F 83% 29.97 in 7.0 mi Calm Calm - N/A   Mostly Cloudy
12:55 PM 78.8 °F - 73.4 °F 83% 29.97 in 7.0 mi NNW 3.5 mph - N/A   Mostly Cloudy
1:15 PM 80.6 °F 85.4 °F 73.4 °F 79% 29.96 in 10.0 mi Calm Calm - N/A   Mostly Cloudy
1:35 PM 80.6 °F 84.6 °F 71.6 °F 74% 29.95 in 10.0 mi NW 3.5 mph - N/A   Mostly Cloudy
1:55 PM 80.6 °F 84.6 °F 71.6 °F 74% 29.95 in 10.0 mi Calm Calm - N/A   Scattered Clouds
2:15 PM 80.6 °F 85.4 °F 73.4 °F 79% 29.94 in 10.0 mi South 3.5 mph - N/A   Mostly Cloudy
2:35 PM 77.0 °F - 71.6 °F 83% 29.94 in 10.0 mi Calm Calm - N/A   Overcast
2:55 PM 77.0 °F - 71.6 °F 83% 29.94 in 10.0 mi Calm Calm - N/A   Overcast
3:15 PM 77.0 °F - 71.6 °F 83% 29.94 in 10.0 mi ESE 4.6 mph - N/A   Overcast
3:35 PM 73.4 °F - 71.6 °F 94% 29.95 in 10.0 mi SE 5.8 mph - N/A   Overcast
3:55 PM 73.4 °F - 71.6 °F 94% 29.95 in 7.0 mi NE 6.9 mph - N/A Rain Light Rain
4:15 PM 73.4 °F - 71.6 °F 94% 29.94 in 1.5 mi ENE 4.6 mph - 0.22 in Rain , Thunderstorm Heavy Thunderstorms and Rain
4:35 PM 73.4 °F - 73.4 °F 100% 29.94 in 1.8 mi Calm Calm - 0.27 in Rain Rain
4:55 PM 73.4 °F - 73.4 °F 100% 29.94 in 3.0 mi NE 4.6 mph - 0.27 in   Light Drizzle
5:15 PM 73.4 °F - 71.6 °F 94% 29.94 in 4.0 mi NNE 5.8 mph - N/A Thunderstorm Unknown
5:35 PM 73.4 °F - 71.6 °F 94% 29.95 in 4.0 mi North 5.8 mph - N/A Rain Light Rain
5:55 PM 73.4 °F - 71.6 °F 94% 29.94 in 4.0 mi NNE 6.9 mph - 0.01 in Rain Light Rain
6:15 PM 73.4 °F - 73.4 °F 100% 29.94 in 4.0 mi NNE 6.9 mph - N/A   Light Drizzle
6:35 PM 73.4 °F - 71.6 °F 94% 29.95 in 4.0 mi NE 6.9 mph - N/A   Mostly Cloudy
6:55 PM 71.6 °F - 71.6 °F 100% 29.95 in 4.0 mi Calm Calm - N/A   Overcast
7:15 PM 71.6 °F - 71.6 °F 100% 29.94 in 4.0 mi Calm Calm - N/A   Overcast
7:35 PM 71.6 °F - 71.6 °F 100% 29.94 in 4.0 mi Calm Calm - N/A   Overcast
7:55 PM 71.6 °F - 71.6 °F 100% 29.94 in 4.0 mi Calm Calm - N/A   Overcast
8:15 PM 71.6 °F - 71.6 °F 100% 29.94 in 4.0 mi Calm Calm - N/A   Overcast
8:35 PM 71.6 °F - 71.6 °F 100% 29.93 in 4.0 mi Calm Calm - N/A   Overcast
8:55 PM 71.6 °F - 71.6 °F 100% 29.94 in 5.0 mi Calm Calm - N/A   Overcast
9:15 PM 71.6 °F - 71.6 °F 100% 29.94 in 5.0 mi NNE 3.5 mph - N/A   Overcast
9:35 PM 71.6 °F - 71.6 °F 100% 29.95 in 5.0 mi NNE 4.6 mph - N/A   Overcast
9:55 PM 71.6 °F - 69.8 °F 94% 29.95 in 5.0 mi NNE 4.6 mph - N/A   Overcast
10:15 PM 71.6 °F - 69.8 °F 94% 29.97 in 7.0 mi NNE 4.6 mph - N/A   Overcast
10:35 PM 69.8 °F - 69.8 °F 100% 29.97 in 5.0 mi NNE 8.1 mph - N/A   Overcast
10:55 PM 69.8 °F - 69.8 °F 100% 29.97 in 4.0 mi NNE 8.1 mph - N/A   Overcast
11:15 PM 69.8 °F - 69.8 °F 100% 29.97 in 3.0 mi NNE 6.9 mph - N/A   Overcast
11:35 PM 69.8 °F - 69.8 °F 100% 29.97 in 1.8 mi NNE 5.8 mph - N/A   Overcast
11:55 PM 69.8 °F - 69.8 °F 100% 29.96 in 1.2 mi NE 4.6 mph - N/A   Overcast